GFSWCAN_700_rhum_051.txt.gz
RH
5 5 5 5 12 47 71 76 73 78 78 79 76 71 80 84 81 84 91 90 90 83 82 45 27 24 51 100 100 100 88 91 97 97 94 89 79 87 87 87 94 94 91 88 89 94 83 62 81 94 99 98 98 99
6 6 6 6 7 14 40 73 75 75 79 81 74 71 82 84 80 79 87 90 89 83 75 93 71 30 25 31 95 100 99 99 99 100 95 91 84 94 84 85 98 91 83 80 83 80 74 65 87 94 96 92 95 97
8 8 7 7 10 13 28 74 77 74 82 86 80 74 82 89 92 86 80 88 88 77 71 75 87 77 34 35 34 41 98 100 95 96 100 100 96 91 87 87 97 88 85 84 84 68 68 71 78 91 95 96 99 96
9 10 8 7 9 21 36 65 72 77 84 88 86 78 82 89 93 86 89 92 95 81 67 67 72 67 80 80 69 62 44 91 100 95 91 88 96 86 85 83 86 86 87 73 74 72 71 76 74 78 82 94 97 98
10 11 10 8 8 18 48 61 69 71 82 82 84 84 86 93 94 90 95 94 82 66 57 33 26 44 40 40 34 28 49 84 98 98 90 91 88 92 76 78 70 68 61 74 89 92 88 96 84 82 90 92 86 88
13 12 14 12 9 11 31 46 63 76 86 81 83 87 90 94 95 95 83 64 40 37 47 74 86 78 69 44 69 86 52 43 92 98 98 87 91 82 85 96 81 58 59 67 92 74 79 78 80 83 87 86 83 80
18 17 18 15 12 9 12 34 61 71 77 82 84 87 90 91 92 72 74 48 32 55 95 92 92 100 73 30 16 38 53 25 62 97 96 98 95 96 83 89 95 64 64 65 66 70 76 78 78 82 79 75 72 69
20 21 20 17 15 10 13 36 60 74 74 79 77 83 85 86 78 64 39 53 90 96 96 96 98 98 96 100 96 60 47 42 84 95 95 99 97 88 87 62 68 66 64 66 68 69 70 73 78 76 73 74 76 76
25 25 22 19 16 11 11 32 49 75 82 80 75 78 81 86 68 68 92 96 96 97 97 99 99 100 100 99 100 72 56 38 54 96 97 98 96 93 73 64 67 66 64 66 67 70 70 72 70 72 76 79 75 82
29 28 24 20 15 9 8 38 73 79 82 86 78 78 80 84 69 90 90 94 96 96 97 97 100 100 96 98 100 98 73 95 97 92 96 92 75 65 71 72 74 72 76 82 82 83 87 86 85 81 75 75 80 80
32 29 24 18 11 6 6 36 79 87 81 81 81 77 84 85 84 89 93 95 96 96 97 98 99 97 98 98 97 91 96 97 89 85 97 99 71 58 64 63 70 78 78 88 96 97 87 87 91 98 100 99 89 80
32 28 22 13 7 7 8 37 92 97 89 80 83 76 80 87 88 91 94 95 96 96 96 98 98 97 99 99 96 97 97 96 98 98 97 98 63 69 71 71 68 68 77 82 97 100 100 99 98 99 99 100 97 94
31 26 20 8 6 8 23 97 95 97 92 85 84 79 87 91 89 91 96 98 98 98 98 97 98 98 100 95 96 97 98 97 97 100 100 78 73 72 74 72 75 82 93 98 99 99 98 99 98 98 98 99 90 82
32 26 11 6 8 19 71 96 92 94 88 89 85 74 81 90 90 94 94 95 97 99 97 96 96 97 96 97 97 100 100 97 100 99 92 77 77 72 81 82 83 95 88 98 96 96 96 94 96 96 97 98 98 98
30 16 8 7 33 68 98 97 97 97 92 88 83 72 72 86 96 97 96 95 96 96 97 96 96 94 96 96 94 94 99 99 99 92 77 75 72 69 81 92 96 100 94 94 94 90 92 94 93 94 94 94 90 82
14 9 11 64 100 100 100 98 97 96 94 90 85 75 74 74 87 94 93 95 95 96 96 96 96 98 96 96 96 97 96 93 85 80 78 72 67 66 80 93 99 98 88 89 89 93 94 92 91 89 80 71 66 61
7 7 9 67 97 100 98 97 96 96 98 84 67 68 72 71 72 71 69 73 92 94 96 96 96 100 97 98 92 91 84 86 89 79 71 67 70 81 100 100 94 97 97 98 98 96 96 94 90 85 78 70 63 57
9 17 76 90 97 100 98 95 96 96 89 78 74 74 77 80 81 84 85 86 84 88 92 95 95 98 98 93 80 83 91 96 95 92 86 76 77 100 100 99 97 95 95 96 96 94 87 83 77 65 50 40 31 24
14 52 66 100 100 99 97 97 96 94 82 75 68 68 71 75 78 82 90 94 96 84 76 84 89 82 71 78 84 97 96 98 96 93 96 93 87 77 90 97 97 97 97 95 87 76 59 46 36 25 12 6 4 3
66 100 99 98 98 98 98 96 94 95 74 62 61 62 62 58 59 60 61 64 73 85 93 90 73 76 80 82 91 91 85 83 81 80 94 98 97 88 80 79 82 82 75 67 50 30 21 19 18 13 7 4 3 3
100 99 97 97 97 99 96 93 90 74 73 55 48 51 41 48 49 42 40 49 48 49 56 59 61 71 87 87 87 87 87 74 80 70 74 100 100 96 94 94 92 87 80 71 52 26 20 16 12 7 4 3 3 3
98 97 98 97 96 96 95 84 62 61 46 42 43 37 32 30 28 29 21 33 58 65 65 64 67 74 82 90 89 83 80 82 64 51 45 88 96 97 96 96 92 87 77 55 28 23 19 13 8 5 4 4 4 4
97 97 97 96 96 93 85 60 57 55 47 38 33 33 29 26 22 22 18 30 53 55 59 62 62 63 72 84 88 92 95 94 90 88 65 51 39 46 60 73 59 27 18 19 23 27 25 13 5 5 4 4 4 4
97 97 96 94 88 68 49 51 42 42 40 34 36 38 33 27 22 23 16 17 39 45 59 64 61 55 64 74 82 88 91 90 90 93 94 88 54 34 33 32 38 43 46 47 39 31 20 8 6 5 5 4 4 4
97 93 89 79 76 67 49 42 42 38 41 46 46 41 35 32 28 24 17 17 32 41 38 48 55 55 52 61 73 78 81 88 94 96 94 70 72 69 55 49 47 46 46 39 30 17 8 7 7 6 5 5 4 4
80 78 67 79 79 71 70 63 60 56 47 41 42 38 33 38 38 31 23 19 24 39 39 33 38 49 61 64 61 65 80 89 87 87 91 92 86 86 60 33 32 29 23 17 11 11 10 9 8 7 6 5 4 4
87 64 62 65 76 68 58 50 39 36 34 37 34 36 45 48 40 34 28 26 24 31 48 46 36 26 20 23 42 67 79 81 81 82 77 67 57 51 49 48 44 34 31 27 24 21 17 14 11 8 6 5 5 5
50 40 42 44 38 36 38 36 34 34 38 40 41 41 43 41 37 34 35 56 55 60 53 47 44 38 23 15 13 14 31 62 82 85 87 88 89 83 81 78 73 67 61 56 46 35 27 19 13 8 7 6 6 6
50 40 37 38 38 38 37 36 35 34 33 32 30 30 28 28 33 41 44 54 66 64 50 35 22 18 12 11 10 10 9 11 26 53 69 78 85 92 96 89 85 81 82 78 67 51 32 20 12 8 7 7 8 8
40 40 42 42 43 44 40 43 40 41 41 38 34 28 24 20 22 24 21 20 18 17 17 15 14 13 11 10 9 8 8 8 7 9 32 58 65 71 78 82 82 82 86 89 87 76 45 20 10 8 9 11 12 10
40 39 39 40 41 43 50 48 44 44 43 40 37 30 24 25 19 18 18 18 19 18 15 12 12 12 11 9 8 6 5 7 7 8 17 44 58 65 72 74 72 55 46 58 71 68 39 14 11 12 14 13 12 12
40 40 52 54 55 61 65 69 73 66 58 50 46 47 47 48 31 16 15 20 22 24 23 23 14 10 8 6 5 5 4 6 8 8 18 43 59 66 71 69 67 58 30 35 43 28 14 14 14 14 14 16 20 26
46 71 79 73 63 63 69 84 81 78 62 62 62 63 49 44 30 19 20 28 38 40 50 62 47 27 18 12 10 11 11 11 10 15 38 54 63 67 56 22 11 10 11 13 15 16 16 16 18 21 31 43 50 54

GFSWCAN_700_rhum_054.txt.gz
RH
5 5 5 6 6 5 6 10 26 44 53 62 65 67 63 61 64 68 74 79 84 75 75 79 83 71 28 65 99 100 97 90 92 89 87 83 76 80 78 77 83 87 88 84 87 94 83 64 63 86 84 95 100 98
5 5 6 7 7 7 10 25 40 50 54 57 64 68 68 64 69 74 72 76 78 75 71 73 74 83 63 31 40 96 96 98 99 100 87 86 86 81 81 84 80 87 80 80 75 78 74 73 69 83 95 100 98 100
5 5 6 7 9 8 9 27 41 50 56 61 66 71 73 70 73 77 74 85 93 74 64 65 67 69 87 77 28 32 93 96 98 98 97 96 91 81 84 80 83 80 90 84 82 65 75 66 75 74 79 88 99 99
6 6 7 7 7 10 9 16 36 46 52 59 66 72 75 73 78 94 89 90 99 85 68 55 62 67 78 95 68 38 39 58 90 97 98 97 98 86 79 83 82 83 84 78 73 68 70 72 70 69 76 88 87 94
7 8 9 8 8 11 10 10 28 44 54 65 66 69 78 78 82 85 88 90 72 72 52 43 47 33 35 46 88 95 83 66 46 68 99 92 80 90 91 81 80 82 83 83 75 73 74 76 82 75 77 83 87 91
8 10 11 12 11 12 12 9 11 27 60 62 69 72 71 78 78 84 70 65 68 58 52 79 82 88 79 54 59 66 71 78 50 66 83 98 94 97 91 94 76 67 64 76 94 94 91 90 82 78 80 80 78 79
11 14 17 16 14 14 14 8 10 18 55 67 69 69 70 72 80 82 64 50 37 43 85 89 90 93 94 55 21 13 14 59 81 54 59 88 97 98 94 92 85 72 79 78 75 77 79 79 73 75 78 76 75 73
20 21 20 17 17 15 12 8 9 22 58 75 74 72 70 70 78 58 48 91 95 95 94 90 93 92 99 98 96 47 30 27 47 38 36 58 97 97 97 91 84 82 68 66 72 74 76 74 74 74 75 74 70 69
24 25 25 22 20 16 10 9 8 20 61 75 76 72 70 72 76 68 90 92 96 96 91 94 95 96 98 97 99 82 100 95 94 70 46 85 96 92 82 76 79 76 72 70 65 71 72 73 74 75 72 67 69 75
27 27 26 24 21 16 11 9 7 28 78 82 78 71 71 74 83 79 86 90 96 93 91 95 99 95 98 100 100 99 76 100 96 60 75 94 72 75 84 80 85 78 74 77 72 74 79 80 77 74 75 81 80 75
25 30 30 26 22 17 11 9 7 26 83 88 85 73 74 75 80 83 95 95 95 93 93 97 98 98 98 98 99 99 99 99 100 96 99 98 87 81 84 80 70 70 76 76 77 81 83 83 82 89 94 98 93 84
27 32 35 30 25 17 12 8 8 45 84 79 84 76 68 73 84 93 96 97 96 96 96 97 97 96 97 97 99 98 98 98 96 99 98 96 89 83 81 75 71 68 72 82 92 96 100 100 100 98 98 98 100 100
37 39 40 36 29 18 12 8 14 91 94 90 89 74 68 83 83 88 96 95 96 97 96 96 96 96 96 96 96 100 97 97 96 100 100 93 85 80 73 75 73 72 78 94 100 97 97 100 98 98 99 100 99 96
49 50 46 36 29 17 10 11 47 96 98 96 89 78 69 80 84 83 89 94 96 96 96 96 96 97 97 96 96 99 100 100 99 99 99 91 85 78 73 80 84 85 88 94 97 98 98 97 97 97 96 96 96 97
54 53 43 33 22 13 13 45 83 100 100 98 89 74 66 68 85 88 90 89 95 95 95 96 93 94 95 96 96 96 100 99 99 99 98 89 82 74 78 94 98 100 98 98 96 95 97 97 96 95 91 89 83 84
58 53 49 28 15 13 71 100 97 100 100 100 91 70 68 67 70 78 82 87 93 96 95 95 95 96 95 96 97 95 99 93 98 96 89 80 73 72 72 96 100 99 98 97 97 97 97 96 94 90 86 82 77 72
66 50 44 14 14 17 97 97 94 99 98 91 77 72 69 70 71 72 69 71 75 78 87 95 96 96 94 96 92 92 96 95 100 97 91 78 73 85 96 100 99 98 97 97 97 98 97 92 89 85 78 73 59 46
37 22 11 15 12 28 83 89 98 98 91 85 81 78 79 77 78 79 78 81 85 85 82 88 95 96 96 97 89 94 96 96 96 97 95 93 86 84 98 99 98 96 97 97 96 96 94 89 83 78 60 43 27 11
14 11 12 15 38 87 100 96 98 92 83 83 78 77 78 77 77 75 74 79 85 88 92 81 80 79 74 85 93 95 98 98 96 94 87 76 85 96 85 86 99 98 98 98 96 93 81 64 48 37 26 20 14 8
8 18 23 55 83 100 99 99 92 96 90 86 82 76 70 65 63 53 54 54 57 63 73 69 53 64 80 86 87 87 88 86 84 83 76 76 76 97 97 86 82 85 91 91 84 76 70 60 39 23 18 15 12 6
25 43 83 96 98 98 100 95 93 93 90 92 91 64 62 55 40 47 41 37 34 30 40 58 62 63 64 64 69 76 79 79 81 79 78 71 89 95 100 94 87 87 91 91 89 84 78 68 46 25 19 13 7 4
32 38 79 100 98 97 97 96 95 92 94 90 68 58 49 31 30 30 25 22 19 38 47 56 59 62 68 70 75 80 84 89 89 86 84 84 54 49 88 97 97 99 96 93 86 77 64 38 27 24 20 9 6 4
44 88 98 99 97 96 96 95 96 94 94 67 46 45 38 27 26 24 21 13 11 24 29 31 44 59 64 67 71 79 84 86 87 88 91 90 84 75 74 48 43 42 45 61 58 32 22 26 27 28 26 14 5 5
89 100 97 96 96 96 94 92 96 95 78 57 39 37 30 26 24 24 20 15 15 15 20 21 30 44 52 55 60 66 71 77 82 88 92 91 90 92 86 80 66 40 33 34 38 46 49 49 43 33 20 7 6 5
98 96 96 95 95 93 78 68 60 67 52 45 37 38 36 31 29 25 22 19 18 16 18 23 26 26 36 44 54 61 64 67 70 76 87 92 95 96 96 60 52 58 50 45 45 46 45 40 30 14 8 8 7 6
95 95 90 83 73 62 57 43 46 52 45 47 52 50 40 36 35 28 24 24 25 23 22 28 37 34 24 16 14 14 15 18 37 72 81 82 86 93 95 92 80 79 70 51 26 23 19 13 12 12 12 10 9 8
93 82 69 66 69 66 66 63 62 64 61 57 46 40 43 38 29 25 28 32 31 30 32 39 41 42 44 44 43 40 25 16 12 11 31 76 84 81 82 86 84 72 65 52 50 46 40 35 30 25 21 16 12 8
90 76 57 54 54 47 39 35 34 37 40 42 43 42 40 35 38 39 39 38 44 48 42 36 33 31 30 29 26 19 16 13 11 9 8 9 34 78 92 93 93 92 90 92 92 90 77 66 56 47 36 25 16 9
71 49 46 55 43 36 37 40 39 37 36 36 35 35 33 32 33 36 36 33 34 36 35 32 26 25 20 17 15 14 13 12 10 9 8 7 7 13 52 78 81 80 81 86 87 85 85 83 82 75 60 37 20 10
86 83 70 47 44 44 40 39 36 35 32 30 27 23 20 18 21 24 22 22 21 19 17 15 14 17 14 12 10 10 10 9 8 8 7 6 5 6 8 18 59 67 68 74 78 78 77 69 70 76 75 60 29 12
52 46 42 40 39 39 41 47 48 42 36 33 34 26 18 18 14 13 14 15 18 20 21 19 19 18 15 12 12 10 9 9 8 8 7 6 6 6 7 8 20 51 63 71 76 77 77 73 45 42 54 52 20 12
41 42 48 54 53 54 55 52 48 42 37 34 31 30 29 32 22 16 15 19 23 23 19 18 15 14 18 17 17 18 14 10 9 8 7 7 8 8 8 8 21 49 63 71 72 65 57 46 28 29 23 16 14 14
44 44 40 46 53 53 49 45 40 34 28 26 26 28 25 27 24 18 19 30 38 31 29 29 31 30 30 31 35 37 38 40 29 17 13 12 14 14 14 22 44 61 69 65 27 12 12 13 14 15 15 17 18 22

GFSWCAN_700_rhum_057.txt.gz
RH
4 4 4 5 5 5 5 5 5 5 7 12 23 31 42 55 58 58 62 66 71 65 66 75 82 84 72 42 92 97 100 95 97 90 89 81 75 84 83 77 73 84 83 83 79 92 83 63 73 75 74 84 90 96
4 4 5 6 6 6 6 5 6 6 6 8 15 24 42 51 58 64 67 66 62 60 69 74 67 70 78 89 41 90 100 81 98 96 94 94 86 80 78 82 78 81 71 76 69 64 61 71 70 64 76 97 100 100
5 5 5 6 6 7 7 7 7 7 7 9 13 20 35 49 54 66 63 69 79 71 65 70 64 65 65 74 91 38 93 100 100 96 99 97 96 88 81 73 86 85 80 82 85 75 75 70 75 66 73 82 96 98
5 5 6 6 7 8 8 8 7 7 8 11 12 17 35 52 58 67 73 79 82 69 67 48 49 62 69 74 86 92 32 78 97 99 99 96 98 97 91 84 80 84 83 84 81 74 73 69 72 72 71 78 93 94
7 7 7 8 10 11 10 9 7 7 8 12 12 16 36 56 64 70 76 58 57 60 52 63 65 40 41 56 66 96 94 64 40 73 89 95 98 100 97 97 86 74 84 88 84 81 78 67 70 74 76 81 84 87
8 7 8 9 15 13 11 10 7 7 8 10 11 12 36 58 62 68 51 54 49 39 61 92 95 97 96 55 57 86 76 92 96 86 55 50 48 86 98 85 65 58 76 78 84 77 71 79 93 91 89 87 87 86
8 9 10 16 16 14 13 10 8 7 7 9 11 13 43 58 63 69 55 77 87 93 90 91 96 97 95 95 76 33 18 21 43 59 67 78 70 63 95 97 85 75 85 84 86 82 73 82 97 99 99 91 83 82
12 15 17 20 17 17 14 9 8 7 8 10 17 23 52 58 62 69 58 81 84 89 90 82 92 94 97 95 96 56 38 30 27 37 39 41 53 60 76 73 90 96 91 88 82 80 80 75 79 87 86 81 80 78
17 20 23 23 20 19 15 10 9 8 7 11 19 29 49 58 64 63 61 69 82 90 88 90 94 91 93 94 94 93 84 96 94 89 74 97 99 63 70 94 96 95 89 86 82 81 74 72 73 76 78 78 76 73
20 25 26 25 24 21 18 13 11 9 8 11 24 29 53 62 64 69 67 82 92 97 93 95 100 99 98 98 95 98 100 100 96 99 100 79 55 67 96 93 91 88 84 94 93 82 82 84 86 87 84 80 75 74
19 22 25 28 30 25 22 17 13 10 9 14 30 35 57 62 64 75 78 83 86 89 92 96 98 98 99 98 97 97 99 99 98 96 92 99 86 94 98 96 97 98 91 87 88 86 92 88 98 92 90 95 95 92
18 25 29 30 30 32 28 23 15 11 10 20 32 44 53 59 73 71 75 86 88 94 94 96 96 96 96 98 97 97 96 98 95 99 99 98 97 98 96 97 96 96 94 87 94 96 94 95 97 100 100 99 99 100
27 31 30 33 38 38 36 29 19 11 11 26 38 48 59 64 65 70 81 90 89 92 95 95 96 96 96 97 97 97 97 98 97 99 96 99 98 90 83 84 88 94 86 85 91 91 86 93 99 97 98 99 100 98
30 32 34 40 44 47 41 32 20 12 18 51 59 69 67 64 69 70 78 85 94 90 90 94 95 96 96 96 96 97 97 97 100 97 97 100 93 85 76 85 84 88 91 100 94 88 95 100 99 98 98 96 96 94
35 38 43 47 51 50 43 29 19 15 53 70 65 72 67 62 62 65 66 80 82 87 91 92 94 96 95 96 97 98 100 98 93 94 97 97 85 75 73 86 100 99 97 100 99 96 97 97 96 96 95 95 94 89
34 44 52 56 66 58 49 24 15 32 95 97 76 59 66 70 73 73 73 70 73 81 85 93 96 96 96 96 97 95 97 93 98 98 96 95 89 73 74 71 98 100 99 97 97 97 97 98 97 97 93 86 78 70
47 61 65 64 65 64 44 17 19 83 100 91 83 70 75 75 73 70 71 72 71 72 76 85 96 96 94 96 96 97 97 95 96 95 90 90 82 79 94 99 100 99 98 97 97 97 96 96 96 94 85 78 66 48
64 83 80 70 66 46 21 19 61 100 92 92 82 67 77 79 80 83 81 82 83 83 86 87 86 92 93 92 91 87 94 95 95 94 95 97 96 93 88 93 97 93 97 97 99 98 98 97 93 83 70 49 34 23
90 94 82 41 19 16 19 61 94 80 71 70 65 74 81 79 81 82 80 83 86 92 98 98 89 74 69 76 86 94 97 98 96 96 98 98 96 87 84 89 84 90 96 97 97 95 95 91 77 61 49 37 26 19
53 16 13 19 29 29 65 89 83 91 94 96 82 81 80 75 81 76 71 70 66 70 74 68 43 48 58 61 69 75 77 79 78 80 87 94 95 92 85 83 92 93 84 91 93 95 95 94 87 77 67 53 34 23
27 60 81 60 47 84 99 94 95 96 91 76 67 73 74 78 78 71 56 53 57 43 25 22 44 59 59 58 66 71 73 75 77 80 81 79 84 86 83 94 100 98 96 95 95 96 96 96 88 75 68 58 36 24
78 66 94 79 86 98 98 95 93 92 90 86 84 78 74 82 75 62 47 39 27 14 17 29 33 47 58 64 66 68 73 78 81 84 89 90 85 81 79 79 66 75 95 96 95 96 93 87 75 54 30 23 26 26
97 100 100 100 100 94 98 100 98 96 94 91 82 72 81 59 54 47 33 20 14 11 11 14 15 20 44 58 59 63 67 70 74 78 82 86 90 95 97 91 81 63 73 61 48 41 44 46 37 31 39 44 42 34
92 100 100 100 94 97 99 97 94 96 95 92 79 80 67 53 42 39 29 15 14 15 15 15 18 22 30 35 41 46 52 58 59 61 66 77 88 96 95 96 96 96 92 84 68 39 35 37 45 52 52 50 44 26
97 98 96 96 99 100 95 89 96 96 82 70 79 89 63 47 42 33 22 16 20 23 21 19 18 29 33 30 26 18 11 11 12 12 13 28 68 80 83 90 95 95 94 72 52 49 43 39 41 42 37 29 18 10
93 87 84 87 95 94 93 91 92 90 78 64 91 81 62 51 44 41 26 22 21 21 23 24 25 31 37 38 38 28 28 36 26 17 14 11 11 35 74 84 86 95 93 89 88 90 80 46 22 18 16 16 16 17
96 94 95 91 93 91 87 81 63 53 53 62 60 58 57 58 44 32 24 22 24 27 28 29 30 32 33 36 40 40 37 32 27 19 14 12 10 9 9 31 77 89 89 90 91 94 92 89 83 72 61 52 45 36
97 93 82 82 86 86 74 67 72 74 74 69 62 58 49 37 31 29 32 35 36 36 35 33 33 32 29 27 26 26 25 22 18 16 14 14 12 10 9 9 10 38 67 84 91 92 94 95 96 96 94 94 87 71
96 96 93 91 85 73 63 60 56 53 46 41 38 36 33 33 36 36 32 30 29 30 31 32 30 31 22 19 17 16 16 14 12 11 11 12 11 10 11 10 9 8 9 21 54 73 74 75 82 88 91 90 84 73
92 88 63 59 60 56 48 42 37 34 32 31 30 27 24 22 22 22 19 18 17 17 18 19 17 18 16 16 16 17 18 14 12 11 9 9 9 9 8 8 8 10 9 9 10 27 56 66 73 78 81 80 78 67
90 93 94 78 62 49 38 34 32 30 29 28 30 28 24 24 19 19 19 20 22 22 20 17 16 17 19 18 17 13 12 15 15 12 10 8 7 7 8 8 7 7 7 8 10 11 26 53 69 80 82 81 79 65
92 66 47 40 42 46 46 46 44 42 40 38 37 34 31 28 24 18 18 22 22 18 17 17 15 14 20 19 18 17 15 14 14 14 16 13 11 9 8 8 9 8 7 8 10 13 29 52 69 75 69 47 33 24
47 45 38 35 34 34 37 40 40 33 26 22 19 21 24 29 28 32 44 47 46 39 31 30 34 32 29 26 23 19 19 20 22 28 31 31 30 30 25 19 17 14 12 13 14 29 52 69 65 32 13 13 15 16

GFSWCAN_700_rhum_060.txt.gz
RH
4 4 4 4 4 5 5 5 5 7 6 6 7 7 10 19 32 43 50 53 55 55 56 62 69 75 78 62 73 98 97 94 97 94 96 90 82 84 86 81 75 74 88 92 79 87 81 58 68 69 69 75 84 76
4 4 4 4 4 5 6 6 6 7 7 6 7 6 9 18 34 45 54 53 57 54 67 77 66 65 67 78 69 77 97 99 99 97 92 92 87 82 76 81 81 79 73 69 67 64 59 71 69 67 65 78 93 98
7 5 4 4 5 6 6 6 6 8 8 8 7 7 10 17 33 50 59 54 42 39 52 64 64 60 67 68 76 75 60 97 98 99 99 97 90 91 84 78 78 81 78 80 78 67 68 73 71 69 70 77 89 96
15 5 5 5 6 7 8 7 7 7 8 8 7 7 9 18 39 55 57 42 41 35 41 48 57 52 66 67 68 85 73 53 95 99 100 100 100 97 93 90 86 77 81 81 81 76 75 76 75 74 77 76 79 96
6 6 6 7 9 12 12 9 8 8 8 8 8 8 11 23 45 54 50 55 67 76 75 79 65 58 65 76 81 84 92 75 40 78 90 95 94 96 90 96 95 80 81 85 79 75 84 81 75 69 71 79 84 92
6 7 8 8 11 14 13 10 9 8 8 8 9 8 11 26 44 53 51 55 70 77 78 83 95 98 98 80 44 86 93 94 93 55 46 55 67 73 88 95 88 83 94 87 75 74 94 90 73 63 79 92 98 98
9 9 8 10 14 16 12 12 9 8 8 8 10 8 10 26 40 54 57 58 71 74 72 82 95 98 97 99 81 38 24 21 56 79 87 87 85 95 91 82 66 58 66 74 82 81 78 80 79 73 79 96 98 98
11 8 11 13 17 16 15 14 10 9 9 8 10 8 13 25 38 51 59 57 67 72 73 70 84 91 86 91 95 86 80 54 51 57 55 38 33 33 34 24 46 64 92 97 99 94 97 99 90 82 85 91 93 90
13 11 16 17 20 18 18 16 12 10 10 9 9 8 14 24 40 47 54 58 68 76 78 82 90 90 86 89 93 90 90 88 85 93 66 64 83 63 74 99 94 50 81 95 96 94 93 94 89 84 84 83 83 82
15 15 19 22 23 22 20 18 16 13 13 11 10 8 14 25 34 42 51 65 75 84 90 92 98 100 92 93 97 95 96 96 95 97 100 98 70 64 79 83 93 98 100 97 93 98 96 96 91 85 83 82 79 79
18 20 24 25 26 26 24 25 25 22 18 15 11 9 16 17 32 44 57 65 75 86 89 94 90 93 94 95 100 99 100 100 99 96 99 100 97 98 97 97 90 90 96 96 99 97 96 96 97 92 90 86 86 89
20 22 21 22 27 29 29 30 33 32 26 18 13 10 10 26 45 46 54 66 75 83 83 84 89 86 89 96 99 100 98 100 96 100 99 99 97 93 92 86 90 96 98 97 99 100 98 99 100 100 100 100 100 99
18 22 29 34 38 41 43 43 41 39 30 21 15 10 22 40 43 50 55 66 76 83 92 92 90 90 90 96 96 97 98 98 99 99 92 97 99 95 85 76 84 99 99 97 97 98 100 100 100 97 96 95 96 99
25 28 30 33 35 38 44 46 45 44 32 19 15 12 25 47 53 55 60 69 78 82 87 88 89 95 91 94 95 96 97 96 97 95 89 92 95 89 78 76 89 99 98 100 100 93 96 100 100 100 100 98 96 96
27 32 34 28 37 39 46 47 50 51 30 18 17 25 43 54 58 61 66 69 73 78 82 86 87 92 98 94 95 96 96 96 92 88 95 94 93 86 77 74 79 100 100 100 100 98 97 97 98 98 97 97 95 88
39 36 35 42 34 50 48 53 56 57 39 21 18 22 36 48 64 70 73 71 72 70 71 71 84 100 97 94 98 96 97 93 93 91 95 96 91 85 78 76 82 100 98 99 97 97 97 97 98 96 93 88 80 73
30 32 34 42 44 57 62 56 53 58 40 26 22 30 46 59 67 69 73 79 79 75 74 80 83 92 100 98 95 94 95 93 96 96 96 96 96 96 92 89 95 98 97 99 97 98 97 97 97 94 91 81 74 59
35 39 47 57 60 75 76 69 71 55 37 24 23 41 53 55 64 70 73 76 84 87 87 89 92 87 88 93 88 85 94 94 96 96 94 94 98 98 95 91 91 91 92 95 97 96 96 97 96 96 87 68 55 40
36 44 56 69 81 90 94 99 92 52 32 23 26 38 34 52 60 70 72 76 85 92 95 95 91 74 66 72 75 79 87 93 92 93 93 96 96 96 97 94 88 80 86 91 95 95 93 93 94 93 89 78 68 58
48 50 61 83 86 94 96 99 49 36 30 43 44 49 59 57 60 60 65 76 87 85 88 70 45 46 48 51 52 54 56 61 65 68 70 75 77 78 80 87 92 88 81 78 92 97 95 93 94 94 93 91 84 74
69 78 88 96 82 93 98 86 64 66 66 67 63 64 57 58 67 65 65 82 85 72 51 35 35 31 48 56 65 64 70 73 74 76 76 77 81 84 84 85 87 84 85 94 99 99 96 98 97 97 93 88 75 59
94 95 94 90 76 100 88 97 92 82 79 82 76 70 65 68 72 68 69 79 75 52 29 23 21 29 39 49 59 63 64 64 68 73 75 76 79 85 90 90 86 83 85 88 82 85 93 92 90 83 72 58 47 38
92 96 82 87 100 98 85 97 100 100 100 97 87 75 72 76 77 73 68 59 50 22 18 15 12 16 21 26 51 52 54 58 62 61 57 60 69 78 87 92 92 90 91 95 92 79 69 65 57 46 40 38 35 44
37 99 96 96 99 100 93 94 85 79 89 84 81 83 84 87 81 76 69 47 22 16 17 17 15 15 18 21 22 22 25 26 19 11 11 11 12 22 60 74 81 86 87 90 94 95 95 88 60 38 41 47 50 49
98 96 97 96 93 87 95 95 94 85 76 76 83 84 92 92 85 72 65 35 17 18 20 21 21 20 20 23 29 27 24 13 12 27 30 21 16 12 10 19 65 74 78 87 94 94 94 79 54 44 39 31 28 24
98 94 75 76 88 86 72 62 60 70 73 82 92 97 93 91 89 86 68 38 23 24 22 20 23 26 24 26 32 36 40 41 40 37 35 30 22 16 12 9 9 37 44 75 84 91 95 94 92 83 64 62 62 48
94 86 93 86 85 71 70 72 75 83 85 91 92 91 86 84 78 65 45 31 29 26 24 25 26 28 28 28 28 31 33 34 34 31 29 26 20 17 14 12 11 11 9 10 26 70 88 93 94 95 96 95 94 92
96 84 82 76 77 76 80 82 90 96 96 93 78 65 63 57 51 45 40 34 31 30 31 30 27 26 26 28 29 28 28 28 25 22 19 18 16 14 13 12 12 11 11 10 10 9 13 43 79 88 86 88 94 93
91 83 75 77 78 94 100 99 96 93 83 77 72 69 67 61 55 49 42 36 31 26 22 18 16 17 17 21 22 21 20 20 20 18 16 14 13 12 14 11 11 10 10 10 9 8 8 8 10 23 64 72 74 82
88 90 91 89 94 98 97 93 69 53 45 40 38 38 37 33 29 26 22 22 21 20 19 19 20 22 20 21 19 21 23 22 21 17 12 12 12 12 11 10 9 8 8 9 9 8 7 7 8 9 12 32 58 69
96 98 98 96 90 81 73 84 92 86 69 45 31 27 24 22 18 20 21 22 20 17 16 14 14 16 17 17 16 14 12 14 15 16 16 15 14 13 12 11 10 9 8 8 8 9 10 8 7 8 10 13 28 54
99 96 96 96 94 91 67 41 35 32 30 30 32 32 31 24 17 15 22 24 24 26 26 26 26 26 29 29 28 26 24 21 18 22 25 22 19 17 16 15 14 12 11 10 10 9 10 11 9 10 11 15 31 54
96 95 91 81 46 36 35 36 35 32 25 21 17 16 22 32 37 44 49 44 50 53 49 49 55 56 51 42 36 36 38 40 40 37 34 30 26 24 23 24 28 31 28 22 17 21 23 18 19 18 19 24 48 66

GFSWCAN_700_rhum_063.txt.gz
RH
86 12 4 4 4 4 4 4 6 6 5 4 3 4 4 4 9 22 37 44 45 44 56 60 64 65 73 79 60 91 98 94 98 97 92 86 87 83 90 84 79 77 83 90 86 91 82 63 63 65 73 66 79 87
73 8 4 4 5 5 5 6 7 8 7 5 3 3 4 4 12 20 37 40 44 41 38 48 63 70 68 66 77 67 92 98 100 100 96 94 86 83 81 87 84 83 73 71 71 65 61 67 73 75 72 74 80 96
55 10 5 5 6 5 6 6 8 9 9 7 4 4 3 4 11 23 37 44 55 45 56 50 53 52 56 63 65 80 73 95 98 98 98 99 96 95 88 80 76 76 81 81 78 65 68 70 72 73 77 78 80 96
24 7 5 6 5 5 6 6 7 8 10 9 7 5 4 4 13 26 36 46 60 66 69 64 54 58 60 66 67 70 79 70 91 97 98 99 100 100 95 90 88 80 80 79 81 75 72 70 78 73 70 73 80 81
14 7 6 5 6 7 7 8 7 8 10 11 10 7 4 4 14 26 36 45 64 65 69 80 81 84 82 77 80 75 76 87 72 62 95 96 97 99 100 98 98 88 80 85 85 88 94 82 85 84 74 67 76 82
9 7 6 7 7 9 12 12 9 8 9 11 12 10 5 6 11 19 34 43 62 67 71 83 86 89 93 84 49 64 94 89 92 88 59 48 62 70 77 80 73 71 75 89 83 76 78 77 84 81 75 73 85 89
14 20 9 8 10 13 14 12 11 9 10 10 11 10 6 6 12 19 33 43 50 67 70 80 85 87 93 91 88 75 43 31 67 85 85 76 67 72 73 65 51 59 71 70 92 85 78 72 77 82 80 69 85 94
20 12 13 10 14 14 14 13 12 10 10 11 12 10 7 7 10 19 28 41 46 63 67 74 84 89 94 93 86 88 87 76 70 71 68 58 43 32 26 77 84 43 30 65 80 98 91 89 97 98 95 85 86 98
14 11 10 16 14 16 16 16 14 11 11 14 15 12 9 7 10 20 32 44 56 67 74 87 87 93 89 86 91 92 90 89 79 87 88 65 58 56 54 64 92 100 62 76 82 97 97 100 96 96 86 85 87 88
12 11 17 14 18 19 19 18 16 15 15 16 17 14 10 9 9 24 36 44 58 68 80 88 87 91 87 89 96 98 96 95 89 89 99 86 72 90 91 88 91 99 99 82 80 90 90 92 99 97 93 87 90 88
13 19 21 19 21 20 21 20 23 26 26 25 23 16 12 8 17 31 39 40 55 69 75 77 79 81 89 91 97 98 98 100 100 97 100 95 92 96 93 88 87 94 87 85 98 92 97 94 97 96 97 97 96 92
20 23 22 18 23 25 25 28 30 31 30 30 29 22 14 11 30 36 38 45 53 64 65 71 76 77 79 89 100 100 100 100 95 100 94 96 97 96 94 84 78 79 88 89 92 94 88 89 97 97 98 100 100 97
25 28 24 24 28 35 36 43 44 42 40 37 33 23 13 19 33 39 44 46 52 57 62 65 72 76 82 97 96 98 97 96 99 98 92 94 92 91 90 78 77 93 100 99 97 97 97 98 98 99 97 97 91 96
29 26 27 34 40 38 41 26 37 41 45 42 31 15 14 29 39 45 49 56 58 62 63 62 68 76 81 88 92 96 98 97 97 97 88 89 97 91 90 82 78 98 100 100 100 98 97 96 96 96 96 97 98 97
29 32 35 37 38 35 34 25 34 37 52 46 37 20 22 33 42 37 45 56 58 64 63 64 64 67 74 88 91 96 97 96 95 90 85 93 95 96 95 90 79 85 100 98 100 97 97 97 97 96 98 98 98 96
37 36 35 39 36 37 31 31 33 39 48 50 46 28 24 28 37 39 43 54 60 66 69 70 69 72 89 94 100 94 96 94 94 93 96 97 96 96 95 91 91 91 95 96 98 97 97 98 97 97 96 96 90 75
33 35 44 47 42 34 33 31 38 48 61 52 47 42 28 33 49 42 47 57 63 70 77 81 76 73 85 98 96 89 92 94 96 97 96 97 96 96 97 96 93 91 94 94 97 96 96 97 97 97 96 94 80 67
42 50 54 56 43 39 42 48 61 72 54 55 62 49 35 39 49 43 57 66 65 68 74 84 85 78 78 73 78 82 86 86 90 99 98 96 97 98 99 99 97 91 85 91 96 95 96 96 96 96 97 96 81 59
40 36 37 44 46 46 58 71 64 69 61 72 77 59 30 37 39 51 62 62 67 70 78 82 84 61 54 61 65 70 73 72 69 70 70 70 67 65 67 76 88 92 89 92 92 93 96 96 96 96 96 96 96 96
34 33 41 45 48 52 62 71 62 70 86 81 60 40 36 40 54 62 60 64 67 74 75 62 50 55 51 53 51 33 33 56 60 59 66 74 74 71 68 71 76 78 76 78 83 82 83 95 96 94 92 93 93 91
37 43 50 55 64 70 69 76 81 89 80 62 46 48 53 52 55 59 65 74 79 71 45 46 57 50 42 36 26 37 58 64 67 67 63 65 75 75 77 80 83 86 84 85 89 94 90 97 99 94 94 92 90 87
60 66 79 87 93 97 91 94 100 98 92 84 69 60 51 51 54 59 66 68 66 51 48 52 54 37 30 19 27 30 51 61 62 64 64 60 61 66 70 76 84 90 94 96 95 89 88 91 90 83 86 82 67 51
81 82 90 96 97 97 97 91 83 88 95 81 59 63 70 70 59 49 57 57 54 44 53 45 28 19 14 14 17 15 32 42 49 51 47 20 12 14 28 54 70 80 86 93 89 92 95 95 90 85 70 71 67 43
92 96 97 97 96 95 86 82 75 78 80 80 78 76 74 68 61 68 58 48 43 49 44 28 21 17 14 14 15 17 17 21 22 24 16 19 23 20 14 11 12 27 58 77 81 84 89 94 97 97 95 82 47 44
96 96 96 96 93 90 91 96 94 89 71 70 78 73 68 72 75 67 53 39 45 44 34 23 18 17 18 19 18 20 22 26 28 24 14 15 25 28 26 22 17 12 9 14 49 72 79 80 86 91 84 68 60 69
90 92 86 98 99 96 91 93 89 79 70 63 72 69 65 80 91 84 51 50 50 57 42 28 25 22 20 26 27 26 30 34 37 42 47 44 40 34 28 26 20 17 14 12 11 12 30 59 77 83 86 88 86 82
81 100 98 92 80 71 63 53 49 62 62 70 80 86 97 100 87 70 50 44 39 36 35 30 27 26 27 29 32 33 32 34 37 37 39 40 39 33 28 24 21 18 16 14 13 12 11 10 12 27 59 80 89 92
98 85 89 90 85 83 77 73 67 67 76 85 90 94 94 83 66 56 50 48 46 42 35 33 33 33 31 28 26 27 27 29 30 28 27 26 27 26 24 20 18 16 14 12 11 11 11 11 10 10 9 10 22 48
95 96 95 88 85 86 80 72 71 77 82 88 90 84 77 70 69 68 67 59 41 33 29 24 20 18 17 18 19 21 23 21 19 16 14 13 13 15 19 15 14 14 14 12 11 10 9 9 9 9 8 8 9 11
99 94 91 82 80 82 81 76 77 86 93 97 91 77 58 49 47 43 38 32 25 21 20 18 18 18 18 19 19 21 24 25 24 22 17 16 15 15 16 14 13 14 12 11 10 10 9 8 8 8 9 9 9 9
74 74 86 92 91 90 90 96 98 97 79 64 65 69 68 56 48 34 23 18 16 14 13 13 14 15 16 18 19 18 18 22 22 22 20 18 17 16 17 16 15 16 17 14 12 11 10 10 10 9 9 9 9 9
78 87 98 100 100 98 96 93 83 80 79 70 48 34 28 24 19 18 18 24 28 32 32 34 32 32 34 35 37 40 39 40 43 45 43 38 32 27 24 23 23 22 24 24 19 16 15 14 13 12 11 10 10 10
90 94 100 100 97 96 96 91 67 45 34 28 24 19 17 23 29 40 49 52 50 49 52 55 56 58 62 66 68 70 74 75 77 73 72 65 58 50 45 43 41 36 32 27 24 22 20 20 19 18 19 21 25 24

GFSWCAN_700_rhum_066.txt.gz
RH
98 100 100 97 26 4 3 3 4 4 4 4 3 3 4 4 4 11 21 29 38 37 38 38 50 63 66 64 75 69 84 90 98 97 98 91 80 86 88 84 79 77 86 90 93 95 82 65 69 67 76 72 67 93
100 100 100 98 15 4 4 4 6 6 6 4 3 3 4 3 4 8 17 28 39 44 46 46 56 58 60 63 67 75 81 97 100 97 95 91 84 90 84 89 86 84 73 70 68 64 60 64 70 74 72 78 80 88
100 100 99 78 7 5 4 5 7 8 7 5 3 4 4 3 4 8 16 28 41 48 52 56 58 58 53 58 62 68 71 81 97 99 99 96 95 95 90 82 79 78 81 82 77 65 69 74 74 74 81 79 79 81
100 99 99 42 8 5 5 6 8 9 8 8 5 4 4 4 4 6 14 27 42 50 58 67 72 72 70 67 62 66 73 75 74 96 100 98 97 97 96 95 91 84 81 84 84 74 75 72 83 88 84 75 72 76
100 100 99 38 9 5 5 7 7 8 9 10 9 6 4 4 4 5 10 26 42 48 58 68 74 72 69 55 65 74 67 68 77 77 83 94 96 98 97 93 84 64 75 90 89 92 90 75 76 72 75 76 72 67
100 100 98 41 6 6 7 7 7 8 10 10 12 11 4 4 4 5 8 23 37 52 60 65 70 78 80 74 55 34 69 86 80 83 84 80 71 88 90 83 70 69 67 65 74 78 83 91 89 92 74 73 77 71
100 100 88 22 7 7 8 8 8 8 9 11 13 13 6 4 4 6 11 22 35 46 56 64 70 81 82 78 78 82 74 28 46 74 81 83 87 92 85 68 58 66 62 59 68 95 97 78 89 93 90 76 79 80
100 97 86 29 9 8 9 12 11 10 9 11 14 15 10 5 5 6 10 16 33 46 56 58 68 79 78 82 69 74 82 80 69 72 74 72 56 48 36 40 71 68 75 89 57 51 97 84 75 76 82 93 98 90
100 97 74 16 10 13 13 14 12 12 10 12 15 17 14 6 5 6 13 19 29 44 59 66 72 76 75 77 72 82 80 82 78 82 91 88 68 52 52 63 72 75 79 83 65 40 85 70 100 98 96 96 98 93
100 94 28 14 16 15 15 15 13 11 11 12 16 19 15 9 6 8 19 24 36 46 60 66 70 72 72 73 79 85 88 86 86 86 94 87 73 92 93 90 86 81 84 94 93 78 92 76 86 86 86 91 96 96
96 34 24 19 18 17 18 17 16 15 16 18 21 22 19 13 8 17 23 22 33 50 54 57 61 60 67 71 77 95 96 96 99 99 97 95 80 91 91 89 86 78 74 84 90 91 100 99 95 97 98 95 97 97
60 42 36 27 18 21 21 20 22 24 25 27 26 26 25 14 14 25 26 23 32 45 45 50 52 56 57 68 86 98 98 100 97 100 98 95 75 89 91 88 83 71 95 100 94 98 97 94 94 91 93 97 99 97
71 49 20 21 23 24 25 32 36 36 39 38 35 32 22 17 24 30 31 26 31 36 40 47 51 55 60 76 80 93 99 100 100 98 96 81 80 88 90 88 83 81 98 100 100 100 100 98 98 97 97 96 96 96
38 20 25 27 26 32 43 50 43 35 22 30 40 28 20 18 23 37 23 20 30 36 45 51 55 55 56 65 80 92 99 96 97 98 88 80 83 92 95 96 90 78 76 92 100 99 97 96 96 95 95 96 97 96
25 26 28 30 31 42 56 45 43 25 17 21 37 29 21 22 33 31 20 20 29 34 46 54 54 54 55 68 84 97 99 96 97 91 86 95 95 96 96 96 87 85 82 84 93 96 94 90 93 96 96 96 96 96
26 29 31 35 43 47 45 34 38 26 27 26 18 33 31 24 31 29 27 26 35 41 49 57 63 61 65 80 100 88 98 89 89 94 96 96 96 96 96 95 96 94 89 88 91 92 92 93 92 94 98 97 96 95
33 33 39 43 41 36 36 34 34 28 30 31 28 28 43 39 37 36 35 37 44 53 60 65 68 65 62 87 87 83 68 68 85 93 91 92 89 93 95 97 93 94 92 89 85 92 94 94 96 96 96 96 96 82
35 38 43 42 44 49 54 47 37 32 31 35 38 36 54 55 45 46 44 46 56 66 68 75 66 67 64 60 57 59 66 73 76 79 74 68 65 66 67 64 64 79 89 96 96 89 93 95 96 96 96 96 96 97
41 48 58 60 68 68 58 48 39 35 35 41 46 53 66 68 47 49 57 57 66 75 77 73 65 41 42 54 66 65 66 56 52 47 40 49 52 52 58 65 67 65 64 66 80 89 94 93 92 91 94 95 95 96
43 56 58 53 54 55 48 47 45 46 47 57 56 63 60 59 50 48 56 59 76 76 73 61 47 50 48 61 69 69 54 45 31 44 60 70 70 62 64 68 74 77 78 79 81 83 90 92 90 89 95 98 97 96
63 60 50 46 48 50 50 51 54 62 70 77 72 58 54 42 48 63 74 78 72 62 54 51 46 51 49 58 53 44 37 29 45 56 60 62 65 62 62 64 69 76 83 88 88 90 87 89 96 97 99 98 97 97
58 54 50 59 59 60 57 62 74 77 84 88 84 75 70 57 50 50 50 45 33 29 36 35 54 48 48 53 47 24 18 25 39 56 57 60 58 36 24 24 39 57 75 83 86 90 93 96 93 90 93 95 92 88
54 61 67 75 84 77 83 83 85 95 100 90 78 80 72 63 59 56 50 25 22 29 43 53 50 47 42 40 27 15 14 14 27 48 52 50 28 14 17 14 12 11 19 38 53 71 80 85 90 94 97 97 96 91
76 79 93 95 92 92 90 95 91 97 96 82 69 71 69 65 56 48 32 22 26 44 45 41 36 39 37 26 15 14 16 16 18 26 37 39 28 19 18 24 25 22 18 13 10 14 33 64 79 85 91 95 96 97
94 95 95 94 95 100 100 100 97 90 74 79 82 78 76 66 52 46 39 29 44 47 44 42 35 32 25 20 18 20 17 18 23 33 35 36 36 26 22 32 33 31 28 23 18 14 12 10 13 46 82 88 88 85
94 93 83 90 98 100 99 97 95 87 78 74 76 76 62 62 63 56 44 46 42 41 43 45 47 39 30 26 24 27 28 29 32 42 50 49 49 50 53 49 40 32 30 26 23 19 16 14 12 11 10 19 44 71
93 88 95 98 97 93 90 81 78 76 78 59 55 58 69 78 67 52 52 50 43 46 46 41 36 33 32 33 32 31 30 33 40 51 52 48 47 46 45 41 36 33 26 24 22 19 16 14 12 12 11 11 10 9
90 81 84 90 78 78 88 86 78 73 74 70 64 64 74 68 65 60 66 68 63 64 64 59 48 40 35 33 31 29 28 27 27 27 28 28 28 29 30 30 24 22 19 16 16 16 16 15 13 11 10 10 10 10
87 93 93 82 74 78 80 77 79 74 69 71 72 70 74 68 70 75 75 65 53 45 43 39 33 29 25 21 19 17 17 18 18 18 17 16 17 18 26 23 21 19 18 16 15 14 13 13 13 12 11 10 9 9
69 69 85 94 97 95 94 87 79 77 79 79 74 69 66 67 82 78 61 56 52 41 32 28 22 19 16 14 14 16 19 20 22 22 19 16 15 15 16 18 17 15 13 12 12 12 11 11 11 12 12 11 10 9
93 91 93 90 84 77 76 78 74 73 78 78 84 79 77 74 70 71 68 52 34 24 19 16 14 14 14 15 15 14 18 24 26 28 27 25 25 24 24 26 29 29 27 26 26 23 19 15 12 12 13 12 12 11
82 81 75 78 86 89 90 89 82 77 76 87 90 87 84 70 52 32 21 20 22 22 23 26 34 44 49 53 55 54 50 48 49 50 52 52 52 50 47 46 47 48 45 40 36 32 29 25 21 20 20 18 16 15
84 91 93 92 85 85 88 91 89 84 84 88 80 64 45 24 18 25 34 34 41 54 58 57 58 62 67 72 69 66 65 69 72 74 75 76 74 69 60 57 64 72 72 69 62 55 50 45 40 36 30 25 22 20

GFSWCAN_700_rhum_069.txt.gz
RH
99 97 100 99 100 100 92 6 3 3 3 3 3 4 3 3 3 5 10 18 26 31 36 43 47 49 53 57 59 71 64 85 100 99 99 92 84 80 84 81 81 80 85 88 96 96 86 64 71 69 74 75 76 83
100 89 99 99 100 98 21 8 4 4 4 3 3 4 4 3 4 4 7 16 28 32 40 47 52 54 53 57 61 72 81 88 88 96 96 94 84 85 84 88 86 84 77 75 71 65 62 63 70 75 78 77 79 75
100 92 100 99 100 97 40 10 4 5 5 4 3 4 4 4 4 3 5 15 27 34 46 44 50 58 57 54 56 59 72 82 95 90 97 99 89 88 89 83 81 83 83 85 79 65 70 76 79 81 89 74 78 80
100 99 100 100 100 98 26 8 6 6 6 5 4 4 4 4 4 4 5 13 26 36 46 51 48 43 43 58 58 57 62 70 72 86 96 98 100 95 98 91 87 78 75 77 79 79 81 79 83 85 88 90 87 77
98 100 100 100 100 99 28 8 6 8 8 8 5 4 4 4 4 4 6 11 24 32 42 47 55 54 55 53 42 58 65 62 66 72 73 86 95 97 100 99 72 68 72 79 73 85 82 75 87 91 89 87 85 83
99 100 100 100 100 85 23 10 7 9 10 10 8 8 9 4 4 3 5 10 20 34 41 46 55 61 63 61 62 63 39 46 77 74 77 79 74 79 80 80 67 74 77 71 65 68 68 63 68 79 82 97 95 78
99 99 100 100 100 74 23 9 7 8 10 9 11 16 10 4 4 4 5 8 16 29 38 45 49 58 59 65 64 65 67 69 43 37 68 77 81 85 82 76 74 76 73 68 78 71 65 62 84 88 78 95 94 91
100 99 100 100 99 55 13 8 8 8 9 10 13 14 11 4 4 4 4 6 11 24 33 44 52 59 63 65 61 60 65 72 73 69 74 80 68 51 40 44 79 76 65 70 72 81 63 26 65 98 92 78 85 82
99 99 99 100 98 34 12 9 8 8 8 10 16 13 15 9 4 5 5 6 9 16 24 34 44 57 56 59 58 60 62 75 73 76 83 82 78 54 50 55 88 91 86 75 75 84 62 53 69 80 70 98 98 99
99 99 99 99 74 22 14 10 9 10 10 12 16 15 16 14 7 5 8 7 9 14 19 24 29 45 47 48 60 74 83 82 81 82 86 85 72 80 95 92 84 82 74 66 68 78 75 88 88 94 98 98 94 88
99 99 100 98 54 20 14 11 12 11 10 17 12 23 25 17 12 6 12 10 11 18 19 19 26 30 38 41 58 88 89 97 99 98 95 91 72 78 92 93 90 81 70 82 92 83 88 95 95 98 100 100 99 98
99 99 99 96 40 35 16 14 14 13 11 13 27 42 35 22 15 10 17 13 13 17 14 18 23 29 34 45 62 98 98 100 98 96 97 98 73 78 82 90 91 90 82 92 99 96 97 100 99 100 99 98 96 94
99 99 99 86 62 20 17 16 14 13 20 36 47 39 34 26 17 14 19 13 11 12 14 18 25 26 37 48 77 100 100 100 99 100 100 87 87 88 92 94 94 95 87 86 97 100 100 98 96 95 95 96 98 100
98 98 98 76 23 21 19 16 19 33 44 52 61 62 38 21 17 23 21 11 11 12 15 20 22 30 37 49 77 100 100 99 98 99 88 86 90 96 99 98 96 96 94 90 94 98 99 97 93 95 96 97 95 95
97 98 64 38 44 35 22 33 44 45 41 34 30 30 30 24 19 29 18 15 15 14 21 22 26 31 42 57 73 99 98 96 91 81 76 87 89 90 95 97 96 95 95 95 89 89 93 95 94 94 94 94 97 96
96 83 66 46 25 31 54 64 55 36 30 41 40 28 31 27 23 30 24 25 22 20 25 29 32 44 51 58 90 76 91 76 66 78 84 88 85 87 91 88 75 82 87 88 86 89 90 94 98 98 97 97 95 99
93 89 55 28 42 77 80 79 44 35 36 52 44 24 23 28 40 39 37 33 28 30 40 40 39 54 53 68 66 67 48 55 64 70 84 90 79 66 62 59 61 65 72 76 89 93 92 92 95 96 96 94 95 96
69 29 32 65 84 87 78 78 55 51 65 54 44 37 35 38 50 45 43 41 38 40 49 57 51 52 46 45 43 50 60 60 64 64 60 56 54 42 34 34 51 61 63 61 64 76 90 96 97 96 97 97 97 96
79 76 62 78 86 76 75 85 85 64 56 52 42 41 45 50 64 60 55 56 57 59 66 66 56 37 34 48 57 50 54 63 67 63 53 46 34 41 52 62 62 66 71 74 71 72 76 86 94 98 96 96 96 96
84 82 82 80 68 72 91 88 83 71 67 59 45 48 52 56 67 70 58 64 71 63 62 58 29 36 45 58 59 50 47 58 59 56 46 37 56 63 62 63 60 61 67 74 78 83 87 88 90 93 94 93 96 97
66 93 94 94 89 84 62 44 46 54 51 49 52 56 55 54 60 53 59 54 51 34 34 32 31 35 41 60 63 52 44 56 61 50 29 40 60 65 65 43 26 31 49 69 81 88 92 96 98 94 92 95 96 97
93 94 93 88 65 49 46 45 48 53 57 60 59 64 65 57 59 53 59 52 38 32 34 30 22 23 34 50 50 46 43 46 49 29 27 44 59 63 46 14 11 11 9 11 22 44 65 76 86 91 96 97 95 96
91 92 88 73 58 56 56 56 61 66 77 70 69 73 68 62 61 63 50 36 29 25 24 21 27 35 39 44 39 41 44 41 29 21 20 33 54 56 26 20 23 22 23 21 18 13 11 18 42 70 81 89 96 96
92 92 92 79 70 65 64 68 67 72 74 78 75 81 78 72 65 51 41 25 22 28 30 36 40 42 41 37 36 40 35 25 15 14 17 22 42 51 40 28 22 17 27 30 29 26 21 16 13 12 27 64 80 88
86 91 87 88 80 77 72 72 78 80 83 79 80 81 79 74 70 60 38 33 38 37 39 40 41 44 44 40 36 29 25 21 18 18 21 24 46 39 45 51 46 39 41 37 34 30 28 24 20 16 13 12 14 40
94 95 91 86 85 83 87 87 87 87 85 83 84 84 79 74 56 43 39 49 48 45 43 42 40 38 39 40 35 29 28 26 25 25 31 32 47 53 57 60 59 62 63 58 47 38 31 27 23 20 16 14 12 12
96 88 81 81 82 86 94 96 92 87 86 87 82 80 75 63 50 46 51 57 58 62 58 56 56 54 42 37 36 35 34 33 32 32 35 35 38 43 49 53 52 51 35 28 29 28 22 19 18 19 18 16 14 12
90 87 88 87 88 95 92 92 90 81 77 75 69 64 64 61 58 64 75 81 85 76 70 66 53 42 40 40 38 33 29 25 23 20 20 24 25 28 33 39 37 30 23 19 17 16 16 16 16 16 15 14 14 14
90 89 87 88 93 96 97 93 91 85 81 79 74 74 77 72 75 86 86 83 79 72 57 49 51 51 50 47 37 25 18 15 14 14 13 14 17 21 25 25 25 24 21 18 16 14 13 13 13 14 14 12 12 13
71 78 91 94 94 95 93 93 87 90 86 81 76 70 69 74 84 80 73 74 77 73 63 57 56 52 37 20 16 16 16 17 17 17 16 16 17 20 25 28 29 29 25 23 23 25 24 21 18 17 15 14 15 13
70 65 61 63 66 66 73 76 76 72 69 69 73 72 67 70 67 71 74 72 69 61 48 33 23 19 16 16 20 27 40 48 49 49 45 42 40 39 40 40 40 41 42 43 46 49 50 48 46 44 39 32 27 22
82 81 80 78 76 83 90 91 91 89 86 85 79 73 71 72 69 68 60 42 31 26 25 26 29 37 46 50 52 52 52 59 69 69 70 69 67 66 65 63 62 61 62 62 59 54 53 54 60 64 59 50 39 31
78 84 89 90 85 85 82 75 66 63 64 70 72 71 71 65 54 30 24 26 34 47 58 61 63 61 59 57 56 58 60 66 74 77 76 80 82 82 82 80 74 66 58 50 45 45 42 36 36 42 45 52 58 54